Location: Artiguedieu
(43.5000°N, 0.5454°E)
Time: 21:14:39
(UTC+00:00)

Vanguard 1 - Pass Details

Date: 29 July 2021
Orbit: 652 x 3831 km, 34.3° (Epoch: 19 September)

Event Time Altitude Azimuth Distance (km) Brightness Sun altitude
Rises 09:49:23 0° 202° (SSW) 3,009 12.7 52.3°
Reaches altitude 10° 09:52:38 10° 174° (S) 2,272 12.4 52.8°
Maximum altitude 09:55:14 14° 143° (SE) 2,216 12.7 53.2°
Drops below altitude 10° 09:58:17 10° 113° (ESE) 2,780 13.2 53.7°
Sets 10:03:10 0° 91° (E) 4,308 13.8 54.4°
